This demonstration page uses our WeatherBlox Daily Observations layout. Learn more.

39.29038, -76.61219

Hourly Observations for July 3, 2015

Temp ( °F °C ) Dew Point ( °F °C ) Humidity (%) Winds ( mph kmh ) Pressure ( in mb ) Visibility ( mi km ) Precip ( " mm )
12:54 am 00:54 Mostly Clear 53 11.7 45 7.2 74 74 undefined N/A 29.87 1012 N/A 0 0
1:54 am 01:54 Clear 80 26.7 71 21.7 74 74 undefined N/A 30.03 1017 N/A 0 0
2:54 am 02:54 Mostly Clear 68 20 64 17.8 87 87 undefined N/A 29.91 1013 N/A 0 0
3:54 am 03:54 Cloudy 82 27.8 76 24.4 82 82 undefined N/A 29.65 1004 N/A 0 0
4:54 am 04:54 Cloudy 68 20 63 17.2 84 84 undefined N/A 29.92 1013 N/A 0 0
5:54 am 05:54 Mostly Sunny 59 15 51 10.8 76 76 undefined N/A 29.7 1006 N/A 0 0
6:54 am 06:54 undefined 68 20 62 16.7 81 81 undefined N/A 29.96 1015 N/A 0 0
7:54 am 07:54 Mostly Sunny 62 16.7 51 10.6 67 67 undefined N/A 29.98 1015 N/A 0 0
8:54 am 08:54 undefined 72 22.2 62 16.7 71 71 undefined N/A 29.99 1016 N/A 0 0
9:54 am 09:54 Sunny 74 23.3 64 17.8 71 71 undefined N/A 29.54 1001 N/A 0 0
10:54 am 10:54 Mostly Cloudy 75 23.9 65 18.3 71 71 undefined N/A 30.02 1017 N/A 0 0
11:54 am 11:54 Mostly Cloudy 77 25 64 17.8 64 64 undefined N/A 30.01 1016 N/A 0 0
12:54 pm 12:54 undefined 79 26.1 65 18.3 62 62 undefined N/A 29.98 1015 N/A 0 0
1:54 pm 13:54 undefined 78 25.6 66 18.9 67 67 undefined N/A 29.97 1015 N/A 0 0
2:54 pm 14:54 undefined 80 26.7 62 16.7 54 54 undefined N/A 29.97 1015 N/A 0 0
3:54 pm 15:54 undefined 82 27.8 57 13.9 42 42 undefined N/A 29.97 1015 N/A 0 0
4:54 pm 16:54 undefined 81 27.2 55 12.8 41 41 undefined N/A 29.94 1014 N/A 0 0
5:54 pm 17:54 Cloudy 80 26.7 57 13.9 45 45 undefined N/A 29.93 1014 N/A 0 0
6:54 pm 18:54 undefined 79 26.1 58 14.4 49 49 undefined N/A 29.93 1013 N/A 0 0
7:54 pm 19:54 Cloudy 76 24.4 56 13.3 50 50 undefined N/A 29.91 1013 1.75 2.816352 0 0
8:54 pm 20:54 Cloudy 77 25 64 17.8 64 64 undefined N/A 29.92 1013 N/A 0 0
9:54 pm 21:54 Mostly Clear 75 23.9 63 17.2 66 66 undefined N/A 29.93 1014 N/A 0 0
10:54 pm 22:54 Mostly Cloudy 75 23.9 64 17.8 69 69 undefined N/A 29.94 1014 N/A 0 0
11:54 pm 23:54 undefined 75 23.9 62 16.7 64 64 undefined N/A 29.94 1014 N/A 0 0

Powered by AerisWeather